COSMOS 1275 DEB, 17616

Orbit data source: Space-Track

COSMOS 1275 DEB, 17616 is space debris in LEO originally from a launch on Thu, 04 Jun 1981 UTC launched from the Plesetsk Missile And Space Complex (PKMTR). Debris objects in space refer to the collection of defunct objects orbiting the Earth. Examples of debris include non-operational satellites, rocket bodies, and fragments generated from explosions, collisions, or faulty payload assembly.

Loading next visibility...
Identifier
17616, 1981-053KK
Orbit
LEO
Country
Flag of CISCIS
Related business
Manufacturer
Unknown
Mission
Spacecraft
Bus & Motor
Unknown
Mass
Unknown
Launch date (UTC)
1981-06-04 (45 years ago)
Launch vehicle
Unknown
Launch site
Plesetsk Missile And Space Complex (PKMTR)
Object type
Payload
Rocket body
Debris
Shape & HBR
Unknown shape, 0.1 m
Radar Cross Section
Small (<0.1 m²)

Expand to show TLE details & history
Last TLE update: 15 hours ago

TLE from 15 hours ago
0 COSMOS 1275 DEB
1 17616U 81053KK  25340.41920889  .00001288  00000-0  13857-2 0  9998
2 17616  83.0421 135.9842 0118071 321.5418  66.6825 13.69848198 15775
Epoch: 2025-12-06T10:03Z
TLE epoch observation values (Epoch: 2025-12-06T10:03:39.648Z)
Latitude
29.28289°
Longitude
-86.47446°
Altitude
970.133 km
Speed
7.386 km/s
True Right ascension
09h 19m 33s
True Declination
29° 08' 26"
Sunlit
Object was in full shadow at epoch
Visualization orbit readout
Latitude
Unknown
Longitude
Unknown
Altitude
Unknown
Speed
Unknown
Apparent Right ascension
Unknown
Apparent Declination
Unknown
Sunlit
N/A
Visualization observer readout
Local Sidereal Time
23:19:58
Azimuth
Unknown
Elevation
Unknown
Doppler factor
Unknown
Orbital elements
Apogee altitude
1,084.35 km
Perigee altitude
910.186 km
Semi-major axis
7,375.405 km
Eccentricity
0.01181
Inclination
83.0421°
RAAN
135.9842°
Arg. of periapsis
321.5418°
True anomaly
67.93219°
Mean anomaly
66.6825°
Eccentric anomaly
67.30662°
Mean motion
3.42661 °/min
Orbital period
105.06 mins
BSTAR
0.0013857
Loading maneuver chart data...
Computing Atmospheric mass density...

Documentation

Showing up to 5 results
|